#WRAP "2009 UX17" "iau/Ephemerides/Unusual/"

2009 UX17

Orbital Elements

The following orbital elements are taken from MPEC 2009-WA7:
2009 UX17
Epoch 2010 Jan. 4.0 TT = JDT 2455200.5                  MPC
M 323.25505              (2000.0)            P               Q
n   0.76011007     Peri.  278.47564     -0.69248357     -0.71291093
a   1.1891000      Node   216.17777     +0.71339830     -0.65387104
e   0.0834986      Incl.   10.79553     +0.10737492     -0.25339824
P   1.30           H   21.6           G   0.15           U   5
From 79 observations 2009 Oct. 22-Nov. 24, mean residual 0".48.
An explanation of the orbital elements is available.

These orbital elements are also available in forms suitable for loading into a number of popular planetarium-type software programs.


Ephemeris

The following ephemeris is at intervals of five days. A daily ephemeris covering the same time interval is also available.

Personalized ephemerides for this (and other) objects may be generated using the Minor Planet & Comet Ephemeris Service.

Date    TT    R. A. (2000) Decl.     Delta      r     Elong.  Phase     V
2009 11 25    02 33.50   -09 36.4    0.206    1.158   142.6    31.2    19.8
2009 11 30    02 31.76   -12 42.6    0.216    1.152   136.0    36.5    20.1
2009 12 05    02 31.44   -15 08.8    0.227    1.145   130.2    41.1    20.3
2009 12 10    02 32.52   -16 58.4    0.239    1.139   125.0    45.1    20.5
2009 12 15    02 34.97   -18 15.5    0.252    1.133   120.5    48.4    20.7
2009 12 20    02 38.75   -19 04.8    0.265    1.128   116.6    51.3    20.9
2009 12 25    02 43.77   -19 30.7    0.278    1.123   113.2    53.7    21.0
2009 12 30    02 49.90   -19 37.3    0.291    1.118   110.2    55.7    21.2
2010 01 04    02 57.02   -19 27.8    0.303    1.113   107.6    57.4    21.3
2010 01 09    03 05.02   -19 04.5    0.314    1.109   105.3    58.8    21.4
2010 01 14    03 13.85   -18 29.2    0.325    1.105   103.3    60.1    21.5
2010 01 19    03 23.46   -17 43.6    0.335    1.101   101.6    61.1    21.6
2010 01 24    03 33.82   -16 49.4    0.344    1.098   100.0    62.0    21.7
2010 01 29    03 44.85   -15 47.8    0.353    1.095    98.7    62.7    21.8
2010 02 03    03 56.52   -14 39.7    0.360    1.093    97.6    63.3    21.8
2010 02 08    04 08.79   -13 25.7    0.367    1.092    96.6    63.8    21.9
2010 02 13    04 21.69   -12 06.4    0.374    1.091    95.8    64.3    21.9